Regional Weather Roundup
Issued by NWS

Home | Current Version | Previous Version | Text Only | Print | Product List | Glossary Off
Versions: 1 2 3 4 5 6 7 8 9 10 11 12 13 14 15 16 17 18 19 20 21 22 23 24 25 26 27 28 29 30 31 32 33 34 35 36 37 38 39 40 41 42 43 44 45 46 47 48 49 50

898
ASUS44 KLIX 200101
RWRLA
LOUISIANA WEATHER ROUNDUP
NATIONAL WEATHER SERVICE NEW ORLEANS LA
800 PM CDT SUN OCT 19 2014

NOTE: "FAIR" INDICATES FEW OR NO CLOUDS BELOW 12,000 FEET WITH NO
      SIGNIFICANT WEATHER AND/OR OBSTRUCTIONS TO VISIBILITY.
      SKY/WX - SKY CONDITION AND SIGNIFICANT WEATHER.
      TMP - AIR TEMPERATURE.    DP   - DEWPOINT TEMPERATURE.
      RH  - RELATIVE HUMIDITY.  PRES - PRESSURE.
      HX  - HEAT INDEX.         WCI  - WIND CHILL INDEX.

*  THESE STATIONS ARE NOT NWS OR FAA STATIONS AND ARE NOT UNDER
   NWS QUALITY CONTROL.

LAZ040-048-061>063-065-066-069-200200-
SOUTHEAST LOUISIANA

CITY           SKY/WX    TMP DP  RH WIND       PRES   REMARKS
N.O. AUDUBON     N/A     70  58  67 MISG        N/A
N.O. INTL ARPT PTCLDY    70  56  61 E5        30.06R
N.O. LAKEFRONT CLEAR     69  57  65 SE6       30.07R
N.O. DOWNTOWN* FAIR      70  54  56 E3        30.07R
SLIDELL        CLEAR     61  56  83 CALM      30.06S
BATON ROUGE    CLEAR     63  57  81 CALM      30.06S
BOOTHVILLE     CLEAR     71  64  78 NE8       30.05S
BELLE CHASSE   CLEAR     63  57  81 NE3       30.06R
BOGALUSA*        N/A     59  53  79 CALM      30.09R
NEW ROADS*     FAIR      64  58  82 N3        30.07S
GONZALES*      FAIR      62  62 100 CALM      30.06S
HAMMOND*       NOT AVBL
HOUMA*         CLEAR     66  61  84 NE5       30.05S
PORT FOURCHON* PTCLDY    72  64  78 NE12      30.08R

$$

LAZ041-044-053-054-200200-
SOUTHWEST LOUISIANA

CITY           SKY/WX    TMP DP  RH WIND       PRES   REMARKS
LAKE CHARLES   CLEAR     66  58  75 NE6       30.05S
LAFAYETTE      CLEAR     66  61  84 NE3       30.06R
PATTERSON      NOT AVBL
SALT POINT       N/A     71  63  75 CALM      30.04R
NEW IBERIA     CLEAR     68  59  73 N6        30.06R
CHENAULT AIRPK NOT AVBL

$$

LAZ027-028-200200-
CENTRAL LOUISIANA

CITY           SKY/WX    TMP DP  RH WIND       PRES   REMARKS
FORT POLK      CLEAR     62  57  83 NE3       30.06S
ALEXANDRIA INT CLEAR     59  54  83 NE5       30.07R
ALEXANDRIA     PTCLDY    57  54  89 CALM      30.09R

$$

LAZ001-002-200200-
NORTHWEST LOUISIANA

CITY           SKY/WX    TMP DP  RH WIND       PRES   REMARKS
SHREVEPORT     CLEAR     59  53  80 CALM      30.08R
BARKSDALE AFB  CLEAR     60  52  74 E5        30.09R
DTN SHREVEPORT CLEAR     59  52  77 CALM      30.09R

$$

LAZ014-016-200200-
NORTHEAST LOUISIANA

CITY           SKY/WX    TMP DP  RH WIND       PRES   REMARKS
MONROE         CLEAR     55  51  86 CALM      30.11R
TALLULAH       CLEAR     52  49  89 N3        30.10R

$$




USA.gov is the U.S. government's official web portal to all federal, state and local government web resources and services.